Weather History for Grand Marais Airport, MN

Change the Weather History Date:

Friday, December 14, 2012

  Actual Average Record
Temperature  
Mean Temperature 18 °F -  
Max Temperature 26 °F 22 °F 42 °F (1998)
Min Temperature 10 °F 9 °F -14 °F (2007)
Degree Days  
Heating Degree Days 47    
Moisture  
Dew Point 17 °F    
Average Humidity 88    
Maximum Humidity 93    
Minimum Humidity 79    
Precipitation  
Precipitation 0.00 in - - ()
Sea Level Pressure  
Sea Level Pressure 30.07 in    
Wind  
Wind Speed 3 mph (ESE)    
Max Wind Speed 10 mph    
Max Gust Speed 18 mph    
Visibility 6 miles    
Events Fog    
Averages and records for this station are not official NWS values.
T = Trace of Precipitation, MM = Missing Value Source: NWS Daily Summary

Daily Weather History Graph

Daily Weather History Graph

Search for Another Location

Airport:

Trip Planner

Search our weather history database for the weather conditions in past years. The results will help you decide how hot, cold, wet, or windy it might be!

Date:

Astronomy

Dec. 14, 2012 Rise Set
Actual Time 7:43 AM CST 4:09 PM CST
Civil Twilight 7:07 AM CST 4:45 PM CST
Nautical Twilight 6:27 AM CST 5:24 PM CST
Astronomical Twilight 5:50 AM CST 6:02 PM CST
Moon 8:44 AM CST (12/14) 6:07 PM CST (12/14)
Length of Visible Light 9h 38m
Length of Day
8h 25m
Waxing Crescent, 3% of the Moon is Illuminated
Dec 14
Waxing Crescent
Dec 19
First Quarter
Dec 28
Full
Jan 4
Last Quarter
Jan 11
New

Hourly Weather History & Observations

Time (CST) Temp. Windchill Dew Point Humidity Pressure Visibility Wind Dir Wind Speed Gust Speed Precip Events Conditions
12:14 AM 10.4 °F - 6.8 °F 85% 30.06 in 10.0 mi Calm Calm - N/A   Overcast
12:33 AM 10.4 °F 4.0 °F 6.8 °F 85% 30.06 in 10.0 mi NNW 3.5 mph - N/A   Overcast
12:54 AM 12.2 °F - 8.6 °F 85% 30.06 in 10.0 mi Calm Calm - N/A   Overcast
1:13 AM 12.2 °F - 8.6 °F 85% 30.07 in 10.0 mi Calm Calm - N/A   Overcast
1:34 AM 12.2 °F - 8.6 °F 85% 30.07 in 10.0 mi Calm Calm - N/A   Overcast
1:54 AM 12.2 °F - 8.6 °F 85% 30.08 in 10.0 mi Calm Calm - N/A   Overcast
2:13 AM 12.2 °F - 8.6 °F 85% 30.09 in 10.0 mi Calm Calm - N/A   Overcast
2:34 AM 12.2 °F - 8.6 °F 85% 30.09 in 10.0 mi Calm Calm - N/A   Overcast
2:54 AM 12.2 °F - 8.6 °F 85% 30.09 in 10.0 mi Calm Calm - N/A   Overcast
3:13 AM 12.2 °F - 8.6 °F 85% 30.09 in 10.0 mi Calm Calm - N/A   Overcast
3:33 AM 12.2 °F - 8.6 °F 85% 30.09 in 10.0 mi Calm Calm - N/A   Overcast
3:54 AM 14.0 °F - 10.4 °F 86% 30.09 in 10.0 mi Calm Calm - N/A   Overcast
4:13 AM 14.0 °F - 10.4 °F 86% 30.09 in 10.0 mi Calm Calm - N/A   Overcast
4:34 AM 14.0 °F - 10.4 °F 86% 30.09 in 10.0 mi Calm Calm - N/A   Overcast
4:53 AM 12.2 °F - 8.6 °F 85% 30.09 in 10.0 mi Calm Calm - N/A   Overcast
5:14 AM 14.0 °F - 8.6 °F 79% 30.09 in 10.0 mi Calm Calm - N/A   Overcast
5:33 AM 14.0 °F - 10.4 °F 86% 30.09 in 10.0 mi Calm Calm - N/A   Overcast
5:54 AM 12.2 °F 6.1 °F 8.6 °F 85% 30.09 in 10.0 mi NNE 3.5 mph - N/A   Mostly Cloudy
6:13 AM 12.2 °F - 8.6 °F 85% 30.10 in 10.0 mi Calm Calm - N/A   Mostly Cloudy
6:34 AM 12.2 °F - 8.6 °F 85% 30.10 in 10.0 mi Calm Calm - N/A   Scattered Clouds
6:54 AM 12.2 °F - 8.6 °F 85% 30.10 in 10.0 mi Calm Calm - N/A   Clear
7:13 AM 12.2 °F 6.1 °F 8.6 °F 85% 30.10 in 10.0 mi ESE 3.5 mph - N/A   Scattered Clouds
7:34 AM 12.2 °F - 10.4 °F 92% 30.11 in 10.0 mi Calm Calm - N/A   Mostly Cloudy
7:54 AM 15.8 °F 10.2 °F 12.2 °F 86% 30.11 in 10.0 mi SE 3.5 mph - N/A   Overcast
8:13 AM 15.8 °F - 12.2 °F 86% 30.11 in 10.0 mi Calm Calm - N/A   Overcast
8:34 AM 17.6 °F - 14.0 °F 86% 30.11 in 7.0 mi Calm Calm - N/A   Overcast
8:53 AM 17.6 °F - 14.0 °F 86% 30.12 in 10.0 mi Calm Calm - N/A   Overcast
9:14 AM 17.6 °F 12.3 °F 15.8 °F 93% 30.12 in 10.0 mi ESE 3.5 mph - N/A   Overcast
9:33 AM 19.4 °F 14.3 °F 15.8 °F 86% 30.12 in 10.0 mi ESE 3.5 mph - N/A   Overcast
9:54 AM 19.4 °F 12.8 °F 17.6 °F 93% 30.13 in 10.0 mi ESE 4.6 mph - N/A   Overcast
10:14 AM 19.4 °F 12.8 °F 17.6 °F 93% 30.13 in 5.0 mi ESE 4.6 mph - N/A   Overcast
10:33 AM 19.4 °F - 17.6 °F 93% 30.13 in 1.0 mi Calm Calm - N/A   Overcast
10:54 AM 21.2 °F 14.9 °F 17.6 °F 86% 30.12 in 0.2 mi East 4.6 mph - N/A Fog Light Freezing Fog
11:14 AM 21.2 °F 16.4 °F 19.4 °F 93% 30.11 in 0.2 mi East 3.5 mph - N/A Fog Light Freezing Fog
11:33 AM 23.0 °F 17.0 °F 19.4 °F 86% 30.10 in 0.2 mi East 4.6 mph - N/A Fog Light Freezing Fog
11:53 AM 23.0 °F 18.4 °F 19.4 °F 86% 30.11 in 0.2 mi ESE 3.5 mph - N/A Fog Light Freezing Fog
12:14 PM 24.8 °F 20.5 °F 19.4 °F 80% 30.10 in 0.2 mi East 3.5 mph - N/A Fog Light Freezing Fog
12:33 PM 24.8 °F 19.1 °F 19.4 °F 80% 30.10 in 0.2 mi East 4.6 mph - N/A Fog Light Freezing Fog
12:54 PM 24.8 °F 19.1 °F 19.4 °F 80% 30.10 in 0.5 mi East 4.6 mph - N/A Fog Light Freezing Fog
1:14 PM 24.8 °F 19.1 °F 21.2 °F 86% 30.09 in 1.5 mi East 4.6 mph - N/A   Overcast
1:34 PM 24.8 °F 19.1 °F 21.2 °F 86% 30.08 in 1.5 mi East 4.6 mph - N/A   Overcast
1:53 PM 24.8 °F 16.9 °F 21.2 °F 86% 30.07 in 1.5 mi East 6.9 mph - N/A   Overcast
2:14 PM 24.8 °F 17.9 °F 21.2 °F 86% 30.07 in 0.5 mi ESE 5.8 mph - N/A Fog Light Freezing Fog
2:33 PM 24.8 °F 17.9 °F 21.2 °F 86% 30.06 in 0.8 mi ESE 5.8 mph - N/A   Overcast
2:54 PM 24.8 °F 16.9 °F 21.2 °F 86% 30.06 in 0.5 mi East 6.9 mph - N/A Fog Light Freezing Fog
3:14 PM 24.8 °F 17.9 °F 21.2 °F 86% 30.06 in 0.5 mi East 5.8 mph - N/A Fog Light Freezing Fog
3:33 PM 24.8 °F 19.1 °F 21.2 °F 86% 30.05 in 1.0 mi East 4.6 mph - N/A   Overcast
4:14 PM 26.6 °F 19.1 °F 23.0 °F 86% 30.05 in 2.5 mi ESE 6.9 mph - N/A   Overcast
4:33 PM 26.6 °F 17.5 °F 23.0 °F 86% 30.05 in 2.0 mi ESE 9.2 mph - N/A   Overcast
4:54 PM 26.6 °F 18.2 °F 23.0 °F 86% 30.06 in 10.0 mi ESE 8.1 mph - N/A   Overcast
5:13 PM 26.6 °F 17.5 °F 23.0 °F 86% 30.06 in 5.0 mi East 9.2 mph - N/A   Overcast
5:34 PM 26.6 °F 18.2 °F 23.0 °F 86% 30.06 in 7.0 mi ESE 8.1 mph - N/A   Overcast
5:53 PM 26.6 °F 18.2 °F 23.0 °F 86% 30.05 in 5.0 mi East 8.1 mph - N/A   Overcast
6:14 PM 26.6 °F 19.1 °F 24.8 °F 93% 30.04 in 5.0 mi East 6.9 mph - N/A   Overcast
6:33 PM 26.6 °F 19.1 °F 24.8 °F 93% 30.04 in 10.0 mi East 6.9 mph - N/A   Overcast
6:54 PM 26.6 °F 19.1 °F 24.8 °F 93% 30.04 in 7.0 mi ESE 6.9 mph - N/A   Overcast
7:13 PM 26.6 °F 18.2 °F 24.8 °F 93% 30.04 in 7.0 mi ESE 8.1 mph 17.3 mph N/A   Overcast
7:34 PM 26.6 °F 18.2 °F 24.8 °F 93% 30.03 in 7.0 mi ESE 8.1 mph 16.1 mph N/A   Overcast
7:54 PM 26.6 °F 21.2 °F 24.8 °F 93% 30.03 in 7.0 mi ESE 4.6 mph - N/A   Overcast
8:13 PM 26.6 °F 18.2 °F 24.8 °F 93% 30.02 in 10.0 mi ESE 8.1 mph - N/A   Overcast
8:33 PM 26.6 °F 19.1 °F 24.8 °F 93% 30.01 in 10.0 mi ESE 6.9 mph - N/A   Overcast
8:54 PM 26.6 °F 16.8 °F 24.8 °F 93% 30.01 in 10.0 mi ESE 10.4 mph 16.1 mph N/A   Overcast
9:13 PM 26.6 °F 18.2 °F 24.8 °F 93% 30.00 in 7.0 mi ESE 8.1 mph - N/A   Overcast
9:33 PM 26.6 °F 19.1 °F 24.8 °F 93% 29.99 in 7.0 mi ESE 6.9 mph - N/A   Overcast
9:54 PM 26.6 °F 17.5 °F 24.8 °F 93% 29.98 in 7.0 mi East 9.2 mph - N/A   Overcast
10:14 PM 26.6 °F 17.5 °F 24.8 °F 93% 29.97 in 7.0 mi East 9.2 mph - N/A   Overcast
10:33 PM 26.6 °F 18.2 °F 24.8 °F 93% 29.98 in 5.0 mi ESE 8.1 mph - N/A   Overcast
10:54 PM 26.6 °F 19.1 °F 24.8 °F 93% 29.98 in 4.0 mi ESE 6.9 mph - N/A   Overcast
11:13 PM 26.6 °F 17.5 °F 24.8 °F 93% 29.97 in 2.5 mi ESE 9.2 mph - N/A   Overcast
11:34 PM 26.6 °F 16.8 °F 24.8 °F 93% 29.96 in 2.0 mi ESE 10.4 mph 16.1 mph N/A   Overcast
11:53 PM 26.6 °F 18.2 °F 24.8 °F 93% 29.95 in 2.0 mi East 8.1 mph 18.4 mph N/A   Overcast